Location: Aciu?a
(46.2833°N, 22.4500°E)
Time: 02:40:52
(UTC+00:00)

SL-08 RB Rocket - Pass Details

Date: 25 October 2021
Orbit: 646 x 683 km, 97.8° (Epoch: 30 November)

Event Time Altitude Azimuth Distance (km) Brightness Sun altitude
Rises 17:04:58 0° 165° (SSE) 2,985 6.9 -17.6°
Reaches altitude 10° 17:07:10 10° 165° (SSE) 2,083 6.1 -18.0°
Maximum altitude 17:11:44 90° 80° (E) 678 3.6 -18.8°
Drops below altitude 10° 17:16:23 10° 347° (NNW) 2,122 6.5 -19.6°
Sets 17:18:38 0° 348° (NNW) 3,046 7.3 -20.0°
